This is the latest recevied weather packets stored in our database for station/object I1SXT-13. If no packets are shown the sender has not sent any weather packets the latest 10 day(s).
| Time | Temp. | Humidity | Pressure | Rain* | Wind** | Luminosity | Snow |
|---|---|---|---|---|---|---|---|
| 1778134469 | 15.56° C | 77% | 1013.8 hPa | 0 mm | - | - | - |
| 1778134165 | 15.56° C | 77% | 1013.9 hPa | 0 mm | - | - | - |
| 1778133868 | 15.56° C | 76% | 1013.9 hPa | 0 mm | - | - | - |
| 1778133564 | 15.56° C | 76% | 1013.5 hPa | 0 mm | - | - | - |
| 1778133266 | 15.56° C | 79% | 1013.9 hPa | 0 mm | - | - | - |
| 1778132969 | 15.56° C | 80% | 1014 hPa | 0 mm | - | - | - |
| 1778132665 | 15° C | 78% | 1012.9 hPa | 0 mm | - | - | - |
| 1778132368 | 15° C | 82% | 1013.8 hPa | 0 mm | - | - | - |
| 1778132064 | 15° C | 79% | 1013.7 hPa | 0 mm | - | - | - |
| 1778131767 | 14.44° C | 80% | 1013.3 hPa | 0 mm | - | - | - |
| 1778131469 | 14.44° C | 81% | 1014.2 hPa | 0 mm | - | - | - |
| 1778131166 | 14.44° C | 81% | 1013.4 hPa | 0 mm | - | - | - |
| 1778130868 | 13.89° C | 80% | 1013.2 hPa | 0 mm | - | - | - |
| 1778130564 | 14.44° C | 81% | 1014.1 hPa | 0 mm | - | - | - |
| 1778130267 | 14.44° C | 80% | 1013.5 hPa | 0 mm | - | - | - |
| 1778129970 | 14.44° C | 82% | 1013.1 hPa | 0 mm | - | - | - |
| 1778129666 | 14.44° C | 81% | 1013.3 hPa | 0 mm | - | - | - |
| 1778129368 | 14.44° C | 82% | 1013.3 hPa | 0 mm | - | - | - |
| 1778129065 | 14.44° C | 83% | 1013.3 hPa | 0 mm | - | - | - |
| 1778128767 | 13.89° C | 81% | 1013.5 hPa | 0 mm | - | - | - |
| 1778128463 | 13.89° C | 81% | 1013.7 hPa | 0 mm | - | - | - |
| 1778128166 | 13.89° C | 82% | 1013.8 hPa | 0 mm | - | - | - |
| 1778127869 | 13.89° C | 81% | 1013.4 hPa | 0 mm | - | - | - |
| 1778127565 | 14.44° C | 82% | 1013 hPa | 0 mm | - | - | - |
| 1778127268 | 14.44° C | 82% | 1013.1 hPa | 0 mm | - | - | - |
* Rain since midnight (hover to see other rain measurements)
** Current wind speed in m/s (hover to see current wind gust speed)